User: anonymous   Login
Location: Eschentzwiller
(47.7125°N, 7.3981°E)
Time: 13:20:51
(UTC+00:00)
Language:

FALCON 9 DEB - Orbit

View from above orbital plane
View from above orbital plane
View from above satellite
View from above satellite

Ground track
Ground track

The orbit data is extracted from the following two-line orbital elements,

1 46087U 20055BN  21016.82337234  .00007190  00000-0  87160-4 0  9992
2 46087  53.0059 218.6163 0013776  89.1419 271.1172 15.61806456 29972
Epoch (UTC): 16 January 2021 19:45:39
Eccentricity: 0.0013776
inclination: 53.0059°
perigee height: 373 km
apogee height: 392 km
right ascension of ascending node: 218.6163°
argument of perigee: 89.1419°
revolutions per day: 15.61806456
mean anomaly at epoch: 271.1172°
orbit number at epoch: 2997

The dashed part of the orbit path shows where the satellite is in the earth's shadow,  

DLR